Location: �chenoz-la-M�line
(47.6009°N, 6.1354°E)
Time: 12:00:10
(UTC+00:00)

Cosmos 1655 Rocket - Pass Details

Date: 27 January 2021
Orbit: 971 x 1005 km, 83.0° (Epoch: 03 March)

Event Time Altitude Azimuth Distance (km) Brightness Sun altitude
Rises 05:44:14 0° 352° (N) 3,686 6.8 -14.1°
Reaches altitude 10° 05:46:46 10° 355° (N) 2,738 6.2 -13.7°
Maximum altitude 05:53:03 71° 79° (E) 1,037 4.3 -12.7°
Drops below altitude 10° 05:59:19 10° 164° (SSE) 2,742 6.8 -11.7°
Sets 06:01:51 0° 166° (SSE) 3,692 7.4 -11.2°
